{"data":{"norad_id":55600,"epoch":"2026-09-20T11:53:04.682112Z","epoch_age_seconds":100556,"freshness":"FRESH","line1":"1 55600U 23020AH  26263.49519308  .00000167  00000+0  15607-4 0  9997","line2":"2 55600  43.0033 333.9568 0001079 271.9615  88.1113 15.27575006198835","mean_motion":15.27575006,"eccentricity":0.0001079,"inclination_deg":43.0033,"raan_deg":333.9568,"arg_perigee_deg":271.9615,"mean_anomaly_deg":88.1113,"bstar":1.5607e-5,"rev_number":19883,"period_min":94.267056893703,"perigee_km":482.32372631969,"apogee_km":483.80437350626,"semimajor_km":6861.201049913,"source":"CELESTRAK","updated_at":"2026-09-21T09:00:33.271406Z"}}